Flag for Iran Weather past 2 weeks in Esfahãn, Iran

Now
70 °F

Clear.


Feels Like: 70 °F
Forecast: 65 / 101 °F
Wind: 7 mph from Northeast

Location: Esfahan

Current Time: Aug 1, 2014 at 4:34:11 AM

Latest Report: Aug 1, 2014 at 4:00 AM


Visibility: 10 mi

Pressure: 29.89 "Hg

Humidity: 25%

Dew point: 32 °F

Location of EsfahãnLocation

Historic Weather in Esfahãn — Graph

°F

Esfahãn temperature yesterday

Maximum temperature yesterday: 100 °F (at 5:30 PM)
Minimum temperature yesterday: 66 °F (at 6:00 AM)
Average temperature yesterday: 83 °F

Past Weeks' High & Low Weather Summary

 TemperatureHumidityPressure
High106 °F (Jul 28, 2:30 PM)38% (Jul 31, 5:30 AM)30.01 "Hg (Jul 31, 5:30 AM)
Low59 °F (Jul 26, 6:30 AM)3% (Jul 28, 1:30 PM)29.68 "Hg (Jul 21, 7:00 PM)
Average86 °F14%29.85 "Hg
* Reported Jul 17 3:30 AM — Aug 1 3:30 AM, Esfahãn, Weather by CustomWeather, © 2014

Note: Actual official high and low records may vary slightly from our data, if they occured in-between our weather recording intervals... More about our weather records

Advertising

Esfahãn weather history for previous 24 hours

 ConditionsComfort  
Time TempWeatherWind HumidityBarometerVisibility
3:30 AM
Aug 1
70 °FClear.No wind25%29.89 "Hg10 mi
3:00 AM73 °FClear.5 mph22%29.89 "Hg10 mi
2:30 AM75 °FClear.5 mph21%29.89 "Hg10 mi
2:00 AM77 °FClear.No wind19%29.89 "Hg10 mi
1:30 AM77 °FClear.7 mph19%29.89 "Hg10 mi
1:00 AM75 °FClear.12 mph21%29.89 "Hg10 mi
12:30 AM73 °FClear.9 mph20%29.89 "Hg10 mi
12:00 AM77 °FClear.9 mph19%29.89 "Hg10 mi
11:30 PM
Jul 31
77 °FClear.9 mph19%29.89 "Hg10 mi
11:00 PM75 °FClear.7 mph21%29.89 "Hg10 mi
10:30 PM79 °FClear.9 mph15%29.86 "Hg10 mi
10:00 PM84 °FClear.7 mph13%29.86 "Hg10 mi
9:30 PM86 °FSunny.7 mph13%29.83 "Hg10 mi
9:00 PM88 °FClear.12 mph12%29.83 "Hg5 mi
8:30 PM90 °FClear.14 mph11%29.80 "Hg5 mi
8:00 PM91 °FSunny.14 mph10%29.80 "Hg5 mi
7:30 PM95 °FSunny.18 mph9%29.80 "Hg5 mi
7:00 PM97 °FSunny.18 mph9%29.80 "Hg5 mi
6:30 PM99 °FSunny.9 mph9%29.80 "Hg4 mi
6:00 PM100 °FSunny.7 mph8%29.80 "Hg4 mi
5:30 PM100 °FSunny.No wind8%29.80 "Hg4 mi
5:00 PM99 °FSunny.7 mph9%29.80 "Hg4 mi
4:30 PM99 °FSunny.7 mph10%29.83 "Hg4 mi
4:00 PM99 °FSunny.7 mph10%29.83 "Hg4 mi
3:30 PM99 °FDuststorm.5 mph10%29.83 "HgN/A
3:00 PM97 °FSunny.7 mph11%29.86 "Hg3 mi
2:30 PM97 °FSunny.7 mph11%29.86 "Hg3 mi
2:00 PM95 °FSunny.9 mph12%29.89 "Hg3 mi
1:30 PM93 °FSunny.5 mph13%29.89 "Hg3 mi
1:00 PM93 °FSunny.5 mph14%29.89 "Hg3 mi
12:30 PM91 °FSunny.No wind17%29.92 "Hg3 mi
12:00 PM90 °FSunny.5 mph18%29.92 "Hg3 mi
11:30 AM88 °FSunny.5 mph19%29.95 "Hg3 mi
11:00 AM88 °FSunny.7 mph21%29.95 "Hg2 mi
10:30 AM86 °FSunny.9 mph22%29.95 "Hg2 mi
10:00 AM84 °FSunny.7 mph23%29.95 "Hg2 mi
9:30 AM81 °FSunny.5 mph24%29.95 "Hg2 mi
9:00 AM79 °FSunny.9 mph26%29.95 "Hg2 mi
8:30 AM77 °FSunny.5 mph28%29.95 "Hg2 mi
8:00 AM75 °FSunny.5 mph29%29.95 "Hg1 mi
7:30 AM68 °FClear.5 mph35%29.92 "Hg2 mi
7:00 AM68 °FClear.5 mph35%29.95 "Hg3 mi
6:30 AM70 °FPassing clouds.5 mph35%29.92 "Hg3 mi
6:00 AM66 °FPassing clouds.7 mph37%29.92 "Hg4 mi
5:30 AM68 °FClear.9 mph38%29.92 "Hg4 mi
5:00 AM68 °FClear.9 mph35%29.92 "Hg4 mi
4:30 AM68 °FClear.7 mph35%29.92 "Hg4 mi
4:00 AM70 °FClear.5 mph33%29.89 "Hg4 mi
Weather by CustomWeather, © 2014

See weather overviewHow to use our weather pages